Clayton Lake, ME

3:56 AM EDT on May 28, 2017 (GMT -0400)
Clayton Lake

Weather History for K40B - October, 2012

Change the Weather History Date:

Sunday, October 14, 2012

  Actual Average Record
Temperature  
Mean Temperature 34 °F -  
Max Temperature 39 °F 49 °F 72 °F (2014)
Min Temperature 30 °F 31 °F 25 °F (2006)
Degree Days  
Heating Degree Days 30    
Moisture  
Dew Point 33 °F    
Average Humidity 91    
Maximum Humidity 100    
Minimum Humidity 83    
Precipitation  
Precipitation 0.44 in - - ()
Sea Level Pressure  
Sea Level Pressure 30.11 in    
Wind  
Wind Speed 2 mph (SSW)    
Max Wind Speed 7 mph    
Max Gust Speed 17 mph    
Averages and records for this station are not official NWS values.
T = Trace of Precipitation, MM = Missing Value Source: NWS Daily Summary

Daily Weather History Graph

Daily Weather History Graph

Search for Another Location

Airport or City:

Trip Planner

Search our weather history database for the weather conditions in past years. The results will help you decide how hot, cold, wet, or windy it might be!

Date:

Astronomy

Oct. 14, 2012 Rise Set
Actual Time 6:54 AM EDT 5:52 PM EDT
Civil Twilight 6:24 AM EDT 6:22 PM EDT
Nautical Twilight 5:49 AM EDT 6:57 PM EDT
Astronomical Twilight 5:14 AM EDT 7:32 PM EDT
Moon 5:48 AM EDT (10/14) 5:09 PM EDT (10/14)
Length of Visible Light 11h 58m
Length of Day
10h 57m
Waning Crescent, 1% of the Moon is Illuminated
Oct 14
Waning Crescent
Oct 15
New
Oct 21
First Quarter
Oct 29
Full
Nov 6
Last Quarter

Hourly Weather History & Observations

Time (EDT) Temp. Windchill Dew Point Humidity Pressure Visibility Wind Dir Wind Speed Gust Speed Precip Events Conditions
12:25 AM 30.6 °F - 26.2 °F 84% 30.23 in - Calm Calm - N/A   Unknown
1:25 AM 31.1 °F - 27.0 °F 85% 30.25 in - Calm Calm - N/A   Unknown
2:25 AM 32.2 °F - 27.7 °F 83% 30.23 in - Calm Calm - N/A   Unknown
3:25 AM 34.9 °F 29.0 °F 31.6 °F 88% 30.23 in - SSW 6.9 mph 17.3 mph N/A   Unknown
4:25 AM 33.4 °F 28.1 °F - N/A% 30.21 in - Variable 5.8 mph - N/A   Unknown
5:25 AM 32.7 °F - - N/A% 30.20 in - Calm Calm - 0.01 in   Unknown
6:25 AM 32.7 °F - - N/A% 30.16 in - Calm Calm - 0.02 in   Unknown
7:25 AM 33.3 °F - - N/A% 30.15 in - Calm Calm - 0.02 in   Unknown
8:25 AM 33.3 °F - - N/A% 30.16 in - Calm Calm - 0.03 in   Unknown
9:25 AM 34.5 °F 30.4 °F - N/A% 30.12 in - Variable 4.6 mph - 0.01 in   Unknown
10:25 AM 35.4 °F 32.6 °F - N/A% 30.13 in - Variable 3.5 mph - N/A   Unknown
11:25 AM 36.3 °F 32.5 °F - N/A% 30.12 in - Variable 4.6 mph - N/A   Unknown
12:25 PM 37.4 °F 33.8 °F - N/A% 30.10 in - Variable 4.6 mph - N/A   Unknown
1:26 PM 38.5 °F 36.1 °F 39.2 °F 100% 30.08 in - Variable 3.5 mph - N/A   Unknown
2:25 PM 38.8 °F 36.5 °F 35.8 °F 89% 30.07 in - Variable 3.5 mph - N/A   Unknown
3:29 PM 38.8 °F - 39.6 °F 100% 30.05 in - Calm Calm - N/A   Unknown
4:25 PM 39.6 °F - 38.8 °F 97% 30.04 in - Calm Calm - 0.19 in   Unknown
5:27 PM 39.4 °F - - N/A% 30.03 in - Calm Calm - N/A   Unknown
6:25 PM 38.7 °F - - N/A% 30.03 in - Calm Calm - N/A   Unknown
7:25 PM 38.3 °F - - N/A% 30.02 in - Calm Calm - N/A   Unknown
8:27 PM 38.3 °F - - N/A% 30.00 in - Variable 2.3 mph - 0.01 in   Unknown
9:25 PM 37.8 °F 33.3 °F - N/A% 29.99 in - Variable 5.8 mph - 0.02 in   Unknown
10:25 PM 37.6 °F 35.1 °F - N/A% 29.97 in - Variable 3.5 mph - 0.06 in   Unknown
11:25 PM 37.6 °F 34.0 °F - N/A% 29.95 in - Variable 4.6 mph - 0.07 in   Unknown